This demonstration page uses our WeatherBlox Daily Observations layout. Learn more.

Left ArrowRight Arrow

Hourly Observations for September 29, 2015

Temp ( °F °C ) Dew Point ( °F °C ) Humidity (%) Winds ( mph kmh ) Pressure ( in mb ) Visibility ( mi km ) Precip ( " mm )
12:59 am 00:59 Mostly Cloudy with Mist and Fog 75 23.9 72 22.2 90 90 E 7 11 30.04 1017 6 10 0.00 0.00
1:59 am 01:59 Mostly Cloudy with Mist and Fog 75 23.9 72 22.2 90 90 E 6 9 30.03 1017 6 10 0.00 0.00
2:59 am 02:59 Mostly Cloudy with Mist and Fog 75 23.9 72 22.2 90 90 E 7 11 30.01 1016 6 10 0.00 0.00
3:59 am 03:59 Mostly Cloudy with Mist and Fog 75 23.9 72 22.2 90 90 E 7 11 30.00 1016 6 10 0.00 0.00
4:59 am 04:59 Cloudy with Mist and Fog 75 23.9 72 22.2 90 90 ENE 6 9 30.00 1016 6 10 0.00 0.00
5:59 am 05:59 Cloudy with Mist and Fog 75 23.9 72 22.2 90 90 E 8 13 30.00 1016 6 10 0.00 0.03
6:59 am 06:59 Mostly Cloudy with Mist and Fog 75 23.9 72 22.2 90 90 E 10 17 29.99 1016 5 8 0.00 0.00
7:59 am 07:59 Mostly Cloudy with Mist and Fog 76 24.4 73 22.8 91 91 ESE 7 11 29.99 1016 5 8 0.00 0.00
8:59 am 08:59 Mostly Cloudy with Haze 78 25.6 73 22.8 85 85 E 10 17 29.98 1015 6 10 0.00 0.03
9:59 am 09:59 Mostly Cloudy with Haze 81 27.2 73 22.8 77 77 ESE 10 17 29.98 1015 6 10 0.00 0.00
10:59 am 10:59 Mostly Cloudy with Haze 82 27.8 73 22.8 74 74 ESE 13 20 29.97 1015 6 10 0.00 0.00
11:59 am 11:59 Mostly Cloudy 83 28.3 73 22.8 72 72 ESE 14 22 29.96 1015 7 11 0.00 0.00
12:59 pm 12:59 Mostly Cloudy 83 28.3 72 22.2 70 70 ESE 14 22 29.93 1014 7 11 0.00 0.00
1:59 pm 13:59 Mostly Cloudy 84 28.9 73 22.8 70 70 ESE 14 22 29.91 1013 7 11 0.00 0.00
2:59 pm 14:59 Cloudy with Light Rain 81 27.2 73 22.8 77 77 SE 12 19 29.88 1012 5 8 0.00 0.03
3:59 pm 15:59 Cloudy 80 26.7 73 22.8 79 79 ESE 14 22 29.86 1011 7 11 0.00 0.03
4:59 pm 16:59 Cloudy 81 27.2 73 22.8 77 77 SE 14 22 29.84 1011 7 11 0.00 0.00
5:26 pm 17:26 Cloudy with Light Rain 78 25.6 74 23.3 87 87 ESE 10 17 29.83 1010 3 5 0.01 0.25
5:59 pm 17:59 Cloudy with Light Rain 78 25.6 74 23.3 87 87 SE 9 15 29.83 1010 4 6 0.01 0.25
6:59 pm 18:59 Cloudy with Light Rain 78 25.6 74 23.3 87 87 SE 9 15 29.82 1010 8 13 0.00 0.03
7:59 pm 19:59 Cloudy 77 25 74 23.3 90 90 SE 6 9 29.82 1010 7 11 0.02 0.51
8:31 pm 20:31 Cloudy with Light Rain 77 25 75 23.9 94 94 S 7 11 29.83 1010 5 8 0.13 3.30
8:40 pm 20:40 Cloudy with Light Rain 77 25 74 23.3 90 90 SSE 8 13 29.83 1010 6 10 0.13 3.30
8:59 pm 20:59 Mostly Cloudy 77 25 74 23.3 90 90 S 6 9 29.81 1010 8 13 0.13 3.30
9:48 pm 21:48 Mostly Cloudy 77 25 74 23.3 90 90 SSE 7 11 29.80 1009 8 13 0.00 0.00
9:59 pm 21:59 Partly Cloudy 77 25 74 23.3 90 90 SSE 7 11 29.81 1010 8 13 0.00 0.00
10:59 pm 22:59 Mostly Cloudy 77 25 74 23.3 90 90 S 5 7 29.80 1009 8 13 0.00 0.00
11:59 pm 23:59 Mostly Cloudy 77 25 74 23.3 90 90 S 7 11 29.80 1009 8 13 0.00 0.00

Powered by AerisWeather